EW8845 Weather Reports


Display with metric or nautical units.
time (UTC)temp
F
wind
direction
speed
MPH
gust
MPH
rain 1hr
in
rain 24hr
in
rain mn
in
humidity
%
barometer
mb
20260506133015 48 20 4.0 9.0 0.03 0.16 0.16 85 1007.9
20260506131552 48 336 1.0 6.0 0.04 0.15 0.15 86 1007.9
20260506130030 48 355 1.0 6.0 0.04 0.14 0.14 85 1007.8
20260506124555 47 338 2.0 6.0 0.05 0.13 0.13 86 1007.7
20260506123034 47 347 0.0 10.0 0.05 0.13 0.13 85 1007.7
20260506121505 47 5 2.0 10.0 0.05 0.11 0.11 85 1007.6
20260506120041 47 27 3.0 8.0 0.05 0.10 0.10 84 1007.6
20260506114513 47 33 2.0 9.0 0.04 0.09 0.09 83 1007.3
20260506073109 50 69 8.0 16.0 0.00 0.05 0.05 71 1006.2
20260506071535 49 82 5.0 14.0 0.00 0.05 0.05 72 1006.0
20260506061552 48 329 2.0 8.0 0.00 0.05 0.05 78 1006.0
20260506044520 47 32 3.0 10.0 0.01 0.05 0.05 78 1006.2
20260506043052 47 23 0.0 3.0 0.01 0.05 0.05 83 1006.2
20260506041528 47 346 0.0 2.0 0.01 0.05 0.05 85 1006.2
20260506040105 47 23 0.0 3.0 0.00 0.04 0.04 84 1006.2
20260506034537 47 5 0.0 2.0 0.00 0.08 0.04 84 1006.2
20260506033011 47 360 0.0 3.0 0.01 0.08 0.04 85 1006.2
20260506031558 47 5 0.0 5.0 0.01 0.08 0.04 83 1006.3
20260506030022 48 19 2.0 6.0 0.01 0.08 0.04 81 1006.4
20260506024558 48 15 0.0 6.0 0.02 0.12 0.04 82 1006.4
20260506023034 48 23 1.0 6.0 0.03 0.11 0.03 84 1006.5
20260506021510 48 347 1.0 6.0 0.03 0.11 0.03 84 1006.6
20260506020043 48 12 0.0 6.0 0.03 0.11 0.03 83 1006.7
20260506014517 49 30 1.0 7.0 0.02 0.10 0.02 82 1006.7
20260506013052 50 30 3.0 10.0 0.00 0.09 0.00 79 1006.8
20260506011528 50 22 4.0 11.0 0.00 0.09 0.00 76 1006.8
20260506010003 51 30 3.0 9.0 0.00 0.09 0.00 76 1006.8
20260506004538 51 355 1.0 9.0 0.00 0.24 0.00 76 1006.9
20260506003014 51 39 4.0 9.0 0.00 0.24 0.00 77 1007.0
20260506001548 51 31 2.0 9.0 0.00 0.24 0.00 78 1007.0
20260506000023 51 42 2.0 6.0 0.00 0.24 0.00 79 1007.1
20260505234606 51 26 3.0 6.0 0.00 0.37 0.00 79 1007.4
20260505233031 51 12 2.0 6.0 0.00 0.37 0.00 79 1007.4
20260505231507 51 5 1.0 2.0 0.00 0.37 0.00 86 1007.4
20260505230042 51 348 0.0 2.0 0.00 0.37 0.00 87 1007.6
20260505224519 51 22 0.0 5.0 0.00 0.62 0.00 86 1007.5
20260505223056 51 24 0.0 3.0 0.00 0.62 0.00 88 1007.7
20260505221530 51 342 0.0 3.0 0.00 0.62 0.00 89 1007.7
20260505220004 51 342 1.0 3.0 0.00 0.62 0.00 89 1007.7
20260505214549 51 344 0.0 2.0 0.00 0.65 0.62 89 1007.9
20260505213017 51 340 0.0 3.0 0.00 0.65 0.62 89 1008.0
20260505211609 51 338 0.0 2.0 0.00 0.65 0.62 89 1008.0
20260505210031 51 337 0.0 1.0 0.00 0.65 0.62 88 1008.1
20260505204507 51 337 0.0 2.0 0.00 0.65 0.62 89 1008.0
20260505203044 51 338 0.0 1.0 0.00 0.65 0.62 89 1008.1
20260505201518 51 340 0.0 1.0 0.00 0.65 0.62 89 1008.0
20260505200055 51 351 1.0 4.0 0.00 0.65 0.62 88 1008.1
20260505194529 52 5 0.0 5.0 0.00 0.65 0.62 87 1008.0
20260505193005 52 345 2.0 5.0 0.00 0.65 0.62 86 1008.0
20260505191544 52 344 0.0 3.0 0.00 0.65 0.62 85 1007.9
20260505190031 52 15 0.0 3.0 0.00 0.65 0.62 84 1007.7
20260505184557 52 342 1.0 5.0 0.00 0.65 0.62 84 1007.7
20260505183038 52 355 1.0 5.0 0.00 0.65 0.62 83 1007.8
20260505181509 52 349 2.0 6.0 0.00 0.65 0.62 84 1007.7
20260505180046 53 360 1.0 9.0 0.00 0.65 0.62 84 1007.7
20260505174521 53 334 2.0 8.0 0.00 0.65 0.62 82 1007.7
20260505173058 53 338 2.0 10.0 0.00 0.65 0.62 82 1007.8
20260505171535 53 336 3.0 9.0 0.00 0.65 0.62 82 1008.0
20260505170015 53 329 3.0 9.0 0.00 0.65 0.62 81 1008.0
20260505164610 53 338 3.0 9.0 0.00 0.65 0.62 80 1008.0
20260505163022 54 336 2.0 5.0 0.00 0.65 0.62 78 1008.0
20260505161615 54 15 2.0 8.0 0.00 0.65 0.62 77 1008.0
20260505153040 54 17 0.0 5.0 0.00 0.65 0.62 78 1008.4
20260505151510 54 5 1.0 6.0 0.00 0.65 0.62 77 1008.5